Time,TemperatureF,DewpointF,PressureIn,WindDirection,WindDirectionDegrees,WindSpeedMPH,WindSpeedGustMPH,Humidity,HourlyPrecipIn,Conditions,Clouds,dailyrainin,SoftwareType,DateUTC
2013-07-12 00:32:00,65.0,47.0,29.81,SW,230,1.0,-999.0,53,0.00,,,-99.99,,2013-07-12 07:32:00,
2013-07-12 00:43:00,65.0,47.0,29.81,SW,230,1.0,-999.0,53,0.00,,,-99.99,,2013-07-12 07:43:00,
2013-07-12 00:52:00,65.0,47.0,29.81,SW,230,1.0,-999.0,53,0.00,,,-99.99,,2013-07-12 07:52:00,
2013-07-12 01:32:00,65.0,48.0,29.80,North,0,0.0,-999.0,54,0.00,,,-99.99,,2013-07-12 08:32:00,
2013-07-12 01:42:00,65.0,48.0,29.80,North,0,0.0,-999.0,54,0.00,,,-99.99,,2013-07-12 08:42:00,
2013-07-12 01:53:00,65.0,48.0,29.80,North,0,0.0,-999.0,54,0.00,,,-99.99,,2013-07-12 08:53:00,
2013-07-12 02:32:00,65.0,47.0,29.80,North,0,0.0,-999.0,53,0.00,,,-99.99,,2013-07-12 09:32:00,
2013-07-12 02:42:00,65.0,47.0,29.80,North,0,0.0,-999.0,53,0.00,,,-99.99,,2013-07-12 09:42:00,
2013-07-12 02:52:00,65.0,47.0,29.80,North,0,0.0,-999.0,53,0.00,,,-99.99,,2013-07-12 09:52:00,
2013-07-12 03:33:00,64.0,47.0,29.80,North,0,0.0,-999.0,55,0.00,,,-99.99,,2013-07-12 10:33:00,
2013-07-12 03:42:00,64.0,47.0,29.80,North,0,0.0,-999.0,55,0.00,,,-99.99,,2013-07-12 10:42:00,
2013-07-12 03:52:00,64.0,47.0,29.80,North,0,0.0,-999.0,55,0.00,,,-99.99,,2013-07-12 10:52:00,
2013-07-12 04:32:00,64.0,47.0,29.80,North,0,0.0,-999.0,54,0.00,,,-99.99,,2013-07-12 11:32:00,
2013-07-12 04:43:00,64.0,47.0,29.80,North,0,0.0,-999.0,54,0.00,,,-99.99,,2013-07-12 11:43:00,
2013-07-12 04:52:00,64.0,47.0,29.80,North,0,0.0,-999.0,54,0.00,,,-99.99,,2013-07-12 11:52:00,
2013-07-12 05:32:00,63.0,48.0,29.80,North,0,0.0,-999.0,59,0.00,,,-99.99,,2013-07-12 12:32:00,
2013-07-12 05:43:00,63.0,48.0,29.80,North,0,0.0,-999.0,59,0.00,,,-99.99,,2013-07-12 12:43:00,
2013-07-12 05:52:00,63.0,48.0,29.80,North,0,0.0,-999.0,59,0.00,,,-99.99,,2013-07-12 12:52:00,
2013-07-12 06:32:00,62.0,49.0,29.80,North,0,0.0,-999.0,62,0.00,,,-99.99,,2013-07-12 13:32:00,
2013-07-12 06:43:00,62.0,49.0,29.80,North,0,0.0,-999.0,62,0.00,,,-99.99,,2013-07-12 13:43:00,
2013-07-12 06:53:00,62.0,49.0,29.80,North,0,0.0,-999.0,62,0.00,,,-99.99,,2013-07-12 13:53:00,
2013-07-12 07:32:00,62.0,51.0,29.81,North,0,0.0,-999.0,66,0.00,,,-99.99,,2013-07-12 14:32:00,
2013-07-12 07:43:00,62.0,51.0,29.81,North,0,0.0,-999.0,66,0.00,,,-99.99,,2013-07-12 14:43:00,
2013-07-12 07:53:00,62.0,51.0,29.81,North,0,0.0,-999.0,66,0.00,,,-99.99,,2013-07-12 14:53:00,
2013-07-12 08:43:00,71.0,51.0,29.82,North,0,0.0,-999.0,49,0.00,,,-99.99,,2013-07-12 15:43:00,
2013-07-12 08:52:00,71.0,51.0,29.82,North,0,0.0,-999.0,49,0.00,,,-99.99,,2013-07-12 15:52:00,
2013-07-12 08:55:00,73.0,50.0,29.82,North,0,0.0,-999.0,45,0.00,,,-99.99,,2013-07-12 15:55:00,
2013-07-12 09:32:00,73.0,50.0,29.82,North,0,0.0,-999.0,45,0.00,,,-99.99,,2013-07-12 16:32:00,
2013-07-12 09:42:00,73.0,50.0,29.82,North,0,0.0,-999.0,45,0.00,,,-99.99,,2013-07-12 16:42:00,
2013-07-12 10:34:00,76.0,52.0,29.83,North,0,0.0,-999.0,43,0.00,,,-99.99,,2013-07-12 17:34:00,
2013-07-12 10:44:00,76.0,52.0,29.83,North,0,0.0,-999.0,43,0.00,,,-99.99,,2013-07-12 17:44:00,
2013-07-12 10:53:00,76.0,52.0,29.83,North,0,0.0,-999.0,43,0.00,,,-99.99,,2013-07-12 17:53:00,
2013-07-12 11:34:00,76.0,51.0,29.83,North,0,0.0,-999.0,42,0.00,,,-99.99,,2013-07-12 18:34:00,
2013-07-12 11:53:00,76.0,51.0,29.83,North,0,0.0,-999.0,42,0.00,,,-99.99,,2013-07-12 18:53:00,
2013-07-12 13:33:00,80.0,55.0,29.81,SSE,150,9.0,-999.0,42,0.00,,,-99.99,,2013-07-12 20:33:00,
2013-07-12 13:43:00,80.0,55.0,29.81,SSE,150,9.0,-999.0,42,0.00,,,-99.99,,2013-07-12 20:43:00,
2013-07-12 13:54:00,80.0,55.0,29.81,SSE,150,9.0,-999.0,42,0.00,,,-99.99,,2013-07-12 20:54:00,
2013-07-12 14:33:00,78.0,54.0,29.80,ESE,120,3.0,-999.0,43,0.00,,,-99.99,,2013-07-12 21:33:00,
2013-07-12 14:54:00,78.0,54.0,29.80,ESE,120,3.0,-999.0,43,0.00,,,-99.99,,2013-07-12 21:54:00,
2013-07-12 15:53:00,79.0,56.0,29.80,North,0,0.0,-999.0,45,0.00,,,-99.99,,2013-07-12 22:53:00,
2013-07-12 16:33:00,78.0,54.0,29.78,North,0,0.0,-999.0,44,0.00,,,-99.99,,2013-07-12 23:33:00,
2013-07-12 16:42:00,78.0,54.0,29.78,North,0,0.0,-999.0,44,0.00,,,-99.99,,2013-07-12 23:42:00,
2013-07-12 17:45:00,76.0,54.0,29.76,WSW,240,1.0,-999.0,46,0.00,,,-99.99,,2013-07-13 00:45:00,
2013-07-12 17:53:00,76.0,54.0,29.76,WSW,240,1.0,-999.0,46,0.00,,,-99.99,,2013-07-13 00:53:00,
2013-07-12 17:54:00,74.0,55.0,29.75,WSW,250,3.0,-999.0,52,0.00,,,-99.99,,2013-07-13 00:54:00,
2013-07-12 19:35:00,71.0,54.0,29.76,North,0,0.0,-999.0,55,0.00,,,-99.99,,2013-07-13 02:35:00,
2013-07-12 19:44:00,71.0,54.0,29.76,North,0,0.0,-999.0,55,0.00,,,-99.99,,2013-07-13 02:44:00,
2013-07-12 19:53:00,71.0,54.0,29.76,North,0,0.0,-999.0,55,0.00,,,-99.99,,2013-07-13 02:53:00,
2013-07-12 19:54:00,68.0,54.0,29.76,North,0,0.0,-999.0,60,0.00,,,-99.99,,2013-07-13 02:54:00,
2013-07-12 20:34:00,68.0,54.0,29.76,North,0,0.0,-999.0,60,0.00,,,-99.99,,2013-07-13 03:34:00,
2013-07-12 20:44:00,68.0,54.0,29.76,North,0,0.0,-999.0,60,0.00,,,-99.99,,2013-07-13 03:44:00,
2013-07-12 21:32:00,68.0,53.0,29.77,SSW,200,2.0,-999.0,58,0.00,,,-99.99,,2013-07-13 04:32:00,
2013-07-12 21:43:00,68.0,53.0,29.77,SSW,200,2.0,-999.0,58,0.00,,,-99.99,,2013-07-13 04:43:00,
2013-07-12 21:52:00,68.0,53.0,29.77,SSW,200,2.0,-999.0,58,0.00,,,-99.99,,2013-07-13 04:52:00,
2013-07-12 22:52:00,68.0,49.0,29.79,North,0,0.0,-999.0,50,0.00,,,-99.99,,2013-07-13 05:52:00,
2013-07-12 23:43:00,67.0,39.0,29.80,North,0,0.0,-999.0,36,0.00,,,-99.99,,2013-07-13 06:43:00,
2013-07-12 23:52:00,67.0,39.0,29.80,North,0,0.0,-999.0,36,0.00,,,-99.99,,2013-07-13 06:52:00,